Weather History for Miles City, MT

Change the Weather History Date:

Monday, January 27, 2014

  Actual Average Record
Temperature  
Mean Temperature 7 °F 20 °F  
Max Temperature 12 °F 31 °F 55 °F (1992)
Min Temperature 2 °F 10 °F -27 °F (1972)
Degree Days  
Heating Degree Days 58 45  
Month to date heating degree days 1103 1234  
Since 1 July heating degree days 4421 4418  
Cooling Degree Days 0 0  
Month to date cooling degree days 0 0  
Year to date cooling degree days 0 0  
Moisture  
Dew Point -3 °F    
Average Humidity 72    
Maximum Humidity 86    
Minimum Humidity 57    
Precipitation  
Precipitation 0.00 in 0.01 in 0.40 in (1944)
Month to date precipitation 0.03 0.29  
Year to date precipitation 0.03 0.29  
Sea Level Pressure  
Sea Level Pressure 30.51 in    
Wind  
Wind Speed 5 mph (NNW)    
Max Wind Speed 13 mph    
Max Gust Speed 15 mph    
Visibility 10 miles    
Events      
T = Trace of Precipitation, MM = Missing Value Source: NWS Daily Summary

Daily Weather History Graph

Daily Weather History Graph

Search for Another Location

Airport:

Trip Planner

Search our weather history database for the weather conditions in past years. The results will help you decide how hot, cold, wet, or windy it might be!

Date:

Astronomy

Jan. 27, 2014 Rise Set
Actual Time 7:32 AM MST 5:00 PM MST
Civil Twilight 6:59 AM MST 5:33 PM MST
Nautical Twilight 6:23 AM MST 6:09 PM MST
Astronomical Twilight 5:48 AM MST 6:45 PM MST
Moon 4:19 AM MST (1/27) 1:46 PM MST (1/27)
Length of Visible Light 10h 33m
Length of Day
9h 27m
Waning Crescent, 14% of the Moon is Illuminated
Jan 27
Waning Crescent
Jan 30
New
Feb 6
First Quarter
Feb 14
Full
Feb 22
Last Quarter

Hourly Weather History & Observations

Time (MST) Temp. Windchill Dew Point Humidity Pressure Visibility Wind Dir Wind Speed Gust Speed Precip Events Conditions
12:53 AM 3.0 °F -10.5 °F -5.1 °F 69% 30.51 in 10.0 mi North 8.1 mph - N/A   Mostly Cloudy
1:53 AM 1.9 °F -9.2 °F -6.0 °F 69% 30.50 in 10.0 mi NNE 5.8 mph - N/A   Mostly Cloudy
2:53 AM 1.9 °F -7.6 °F -5.1 °F 72% 30.51 in 10.0 mi NNE 4.6 mph - N/A   Scattered Clouds
3:53 AM 1.9 °F - -6.0 °F 69% 30.51 in 10.0 mi Calm Calm - N/A   Overcast
4:53 AM 3.0 °F -4.4 °F -6.0 °F 66% 30.51 in 10.0 mi WNW 3.5 mph - N/A   Overcast
5:53 AM 3.9 °F -5.3 °F -4.0 °F 70% 30.50 in 10.0 mi West 4.6 mph - N/A   Overcast
6:53 AM 3.9 °F -8.2 °F -4.0 °F 70% 30.51 in 10.0 mi West 6.9 mph - N/A   Overcast
7:53 AM 3.9 °F -10.4 °F -6.0 °F 64% 30.51 in 10.0 mi NNW 9.2 mph - N/A   Overcast
8:53 AM 5.0 °F -8.1 °F -5.1 °F 63% 30.52 in 10.0 mi North 8.1 mph - N/A   Overcast
9:53 AM 6.1 °F -4.3 °F -5.1 °F 60% 30.52 in 10.0 mi North 5.8 mph - N/A   Overcast
10:53 AM 8.1 °F -2.0 °F -4.0 °F 58% 30.53 in 10.0 mi North 5.8 mph - N/A   Overcast
11:53 AM 9.0 °F -0.9 °F -2.9 °F 59% 30.51 in 10.0 mi North 5.8 mph - N/A   Overcast
12:53 PM 10.0 °F -1.9 °F -2.9 °F 56% 30.48 in 10.0 mi NNW 8.1 mph - N/A   Overcast
1:53 PM 10.9 °F 1.4 °F -0.9 °F 59% 30.48 in 10.0 mi NNW 5.8 mph - N/A   Overcast
2:53 PM 10.9 °F -1.8 °F -0.0 °F 61% 30.48 in 10.0 mi NNE 9.2 mph - N/A   Overcast
3:53 PM 10.9 °F -2.6 °F -0.0 °F 61% 30.48 in 10.0 mi North 10.4 mph - N/A   Overcast
4:53 PM 10.0 °F -3.7 °F -0.0 °F 64% 30.49 in 10.0 mi NNW 10.4 mph - N/A   Overcast
5:53 PM 7.0 °F -5.7 °F -0.9 °F 70% 30.51 in 10.0 mi NE 8.1 mph - N/A   Clear
6:53 PM 6.1 °F - -0.9 °F 73% 30.52 in 10.0 mi Calm Calm - N/A   Clear
7:53 PM 6.1 °F - -2.0 °F 69% 30.53 in 10.0 mi Calm Calm - N/A   Clear
8:53 PM 5.0 °F - -0.9 °F 76% 30.53 in 10.0 mi Calm Calm - N/A   Clear
9:53 PM 3.9 °F -5.3 °F -0.9 °F 80% 30.53 in 10.0 mi WNW 4.6 mph - N/A   Clear
10:53 PM 3.0 °F -6.4 °F -2.0 °F 80% 30.52 in 10.0 mi NW 4.6 mph - N/A   Clear
11:53 PM 1.9 °F - -2.0 °F 83% 30.52 in 10.0 mi Calm Calm - N/A   Clear